Time,TemperatureF,DewpointF,PressureIn,WindDirection,WindDirectionDegrees,WindSpeedMPH,WindSpeedGustMPH,Humidity,HourlyPrecipIn,Conditions,Clouds,dailyrainin,SoftwareType,DateUTC
2013-08-28 00:02:00,73.9,72.1,29.87,North,0,0.0,0.0,94,0.41,,,0.00,WUHU21623XXSP,2013-08-28 04:02:00,
2013-08-28 00:07:00,73.0,71.2,29.85,North,0,0.0,0.0,94,0.61,,,0.16,WUHU21623XXSP,2013-08-28 04:07:00,
2013-08-28 00:12:00,72.5,70.7,29.84,North,0,0.0,0.0,94,0.80,,,0.35,WUHU21623XXSP,2013-08-28 04:12:00,
2013-08-28 00:17:00,72.3,70.5,29.85,North,0,0.0,0.0,94,0.84,,,0.39,WUHU21623XXSP,2013-08-28 04:17:00,
2013-08-28 00:22:00,72.1,70.3,29.84,North,0,0.0,0.0,94,0.94,,,0.51,WUHU21623XXSP,2013-08-28 04:22:00,
2013-08-28 00:27:00,72.1,70.3,29.83,North,0,0.0,0.0,94,0.94,,,0.53,WUHU21623XXSP,2013-08-28 04:27:00,
2013-08-28 00:32:00,72.1,70.3,29.83,North,0,0.0,0.0,94,0.94,,,0.53,WUHU21623XXSP,2013-08-28 04:32:00,
2013-08-28 00:37:00,72.3,70.5,29.83,North,0,0.0,0.0,94,0.94,,,0.53,WUHU21623XXSP,2013-08-28 04:37:00,
2013-08-28 00:42:00,72.3,70.5,29.83,North,0,0.0,0.0,94,0.90,,,0.53,WUHU21623XXSP,2013-08-28 04:42:00,
2013-08-28 00:47:00,72.3,70.5,29.83,North,0,0.0,0.0,94,0.90,,,0.53,WUHU21623XXSP,2013-08-28 04:47:00,
2013-08-28 00:52:00,72.3,70.5,29.83,North,0,0.0,0.0,94,0.85,,,0.53,WUHU21623XXSP,2013-08-28 04:52:00,
2013-08-28 00:57:00,72.3,70.5,29.83,North,0,0.0,0.0,94,0.71,,,0.53,WUHU21623XXSP,2013-08-28 04:57:00,
2013-08-28 01:02:00,72.3,70.5,29.83,North,0,0.0,0.0,94,0.59,,,0.53,WUHU21623XXSP,2013-08-28 05:02:00,
2013-08-28 01:07:00,72.5,70.5,29.83,North,0,0.0,0.0,94,0.32,,,0.57,WUHU21623XXSP,2013-08-28 05:07:00,
2013-08-28 01:12:00,72.3,70.5,29.83,North,0,0.0,0.0,94,0.18,,,0.57,WUHU21623XXSP,2013-08-28 05:12:00,
2013-08-28 01:17:00,72.5,70.7,29.84,North,0,0.0,0.0,94,0.16,,,0.57,WUHU21623XXSP,2013-08-28 05:17:00,
2013-08-28 01:22:00,72.5,70.7,29.84,North,0,0.0,0.0,94,0.04,,,0.57,WUHU21623XXSP,2013-08-28 05:22:00,
2013-08-28 01:27:00,72.7,70.8,29.84,North,0,0.0,0.0,94,0.04,,,0.57,WUHU21623XXSP,2013-08-28 05:27:00,
2013-08-28 01:32:00,72.7,70.8,29.84,North,0,0.0,0.0,94,0.04,,,0.57,WUHU21623XXSP,2013-08-28 05:32:00,
2013-08-28 01:37:00,72.7,70.8,29.84,North,0,0.0,0.0,94,0.04,,,0.57,WUHU21623XXSP,2013-08-28 05:37:00,
2013-08-28 01:42:00,72.7,70.8,29.83,North,0,0.0,0.0,94,0.04,,,0.57,WUHU21623XXSP,2013-08-28 05:42:00,
2013-08-28 01:47:00,72.7,70.8,29.83,North,0,0.0,0.0,94,0.04,,,0.57,WUHU21623XXSP,2013-08-28 05:47:00,
2013-08-28 01:52:00,72.7,70.8,29.83,North,0,0.0,0.0,94,0.04,,,0.57,WUHU21623XXSP,2013-08-28 05:52:00,
2013-08-28 01:57:00,72.7,70.8,29.83,North,0,0.0,0.0,94,0.04,,,0.57,WUHU21623XXSP,2013-08-28 05:57:00,
2013-08-28 02:02:00,72.7,70.8,29.83,North,0,0.0,0.0,94,0.00,,,0.57,WUHU21623XXSP,2013-08-28 06:02:00,
2013-08-28 02:07:00,72.7,70.8,29.83,North,0,0.0,0.0,94,0.00,,,0.57,WUHU21623XXSP,2013-08-28 06:07:00,
2013-08-28 02:12:00,72.7,71.2,29.83,North,0,0.0,0.0,95,0.00,,,0.57,WUHU21623XXSP,2013-08-28 06:12:00,
2013-08-28 02:17:00,72.7,71.2,29.83,North,0,0.0,0.0,95,0.00,,,0.57,WUHU21623XXSP,2013-08-28 06:17:00,
2013-08-28 02:22:00,72.7,71.2,29.83,North,0,0.0,0.0,95,0.00,,,0.57,WUHU21623XXSP,2013-08-28 06:22:00,
2013-08-28 02:27:00,72.7,71.2,29.83,North,0,0.0,0.0,95,0.00,,,0.57,WUHU21623XXSP,2013-08-28 06:27:00,
2013-08-28 02:32:00,72.7,71.2,29.83,North,0,0.0,0.0,95,0.00,,,0.57,WUHU21623XXSP,2013-08-28 06:32:00,
2013-08-28 02:37:00,72.7,71.2,29.83,North,0,0.0,0.0,95,0.00,,,0.57,WUHU21623XXSP,2013-08-28 06:37:00,
2013-08-28 02:42:00,72.7,71.2,29.83,North,0,0.0,0.0,95,0.00,,,0.57,WUHU21623XXSP,2013-08-28 06:42:00,
2013-08-28 02:47:00,72.9,71.3,29.83,North,0,0.0,0.0,95,0.00,,,0.57,WUHU21623XXSP,2013-08-28 06:47:00,
2013-08-28 02:52:00,72.9,71.3,29.83,North,0,0.0,0.0,95,0.00,,,0.57,WUHU21623XXSP,2013-08-28 06:52:00,
2013-08-28 02:57:00,72.9,71.3,29.83,North,0,0.0,0.0,95,0.00,,,0.57,WUHU21623XXSP,2013-08-28 06:57:00,
2013-08-28 03:02:00,72.9,71.3,29.83,North,0,0.0,0.0,95,0.00,,,0.57,WUHU21623XXSP,2013-08-28 07:02:00,
2013-08-28 03:07:00,72.9,71.3,29.82,North,0,0.0,0.0,95,0.00,,,0.57,WUHU21623XXSP,2013-08-28 07:07:00,
2013-08-28 03:12:00,73.0,71.5,29.83,North,0,0.0,0.0,95,0.00,,,0.57,WUHU21623XXSP,2013-08-28 07:12:00,
2013-08-28 03:17:00,73.0,71.5,29.83,North,0,0.0,0.0,95,0.00,,,0.57,WUHU21623XXSP,2013-08-28 07:17:00,
2013-08-28 03:22:00,73.0,71.5,29.83,North,0,0.0,0.0,95,0.00,,,0.57,WUHU21623XXSP,2013-08-28 07:22:00,
2013-08-28 03:27:00,73.0,71.5,29.83,North,0,0.0,0.0,95,0.00,,,0.57,WUHU21623XXSP,2013-08-28 07:27:00,
2013-08-28 03:32:00,73.0,71.5,29.83,North,0,0.0,0.0,95,0.00,,,0.57,WUHU21623XXSP,2013-08-28 07:32:00,
2013-08-28 03:37:00,73.0,71.5,29.83,North,0,0.0,0.0,95,0.00,,,0.57,WUHU21623XXSP,2013-08-28 07:37:00,
2013-08-28 03:42:00,73.0,71.5,29.83,North,0,0.0,0.0,95,0.00,,,0.57,WUHU21623XXSP,2013-08-28 07:42:00,
2013-08-28 03:47:00,72.9,71.3,29.83,North,0,0.0,0.0,95,0.00,,,0.57,WUHU21623XXSP,2013-08-28 07:47:00,
2013-08-28 03:52:00,73.0,71.3,29.83,North,0,0.0,0.0,95,0.00,,,0.57,WUHU21623XXSP,2013-08-28 07:52:00,
2013-08-28 03:58:00,72.9,71.3,29.83,North,0,0.0,0.0,95,0.00,,,0.57,WUHU21623XXSP,2013-08-28 07:58:00,
2013-08-28 04:03:00,72.9,71.3,29.84,North,0,0.0,0.0,95,0.00,,,0.57,WUHU21623XXSP,2013-08-28 08:03:00,
2013-08-28 04:08:00,72.9,71.3,29.83,North,0,0.0,0.0,95,0.00,,,0.57,WUHU21623XXSP,2013-08-28 08:08:00,
2013-08-28 04:13:00,72.9,71.3,29.83,North,0,0.0,0.0,95,0.00,,,0.57,WUHU21623XXSP,2013-08-28 08:13:00,
2013-08-28 04:18:00,72.9,71.3,29.84,North,0,0.0,0.0,95,0.00,,,0.57,WUHU21623XXSP,2013-08-28 08:18:00,
2013-08-28 04:23:00,72.9,71.3,29.84,North,0,0.0,0.0,95,0.00,,,0.57,WUHU21623XXSP,2013-08-28 08:23:00,
2013-08-28 04:28:00,72.9,71.3,29.84,North,0,0.0,0.0,95,0.00,,,0.57,WUHU21623XXSP,2013-08-28 08:28:00,
2013-08-28 04:33:00,72.9,71.2,29.84,North,0,0.0,0.0,95,0.00,,,0.57,WUHU21623XXSP,2013-08-28 08:33:00,
2013-08-28 04:38:00,72.9,71.3,29.84,North,0,0.0,0.0,95,0.00,,,0.57,WUHU21623XXSP,2013-08-28 08:38:00,
2013-08-28 04:43:00,72.7,71.3,29.84,North,0,0.0,0.0,95,0.00,,,0.57,WUHU21623XXSP,2013-08-28 08:43:00,
2013-08-28 04:48:00,72.9,71.3,29.84,North,0,0.0,0.0,95,0.00,,,0.57,WUHU21623XXSP,2013-08-28 08:48:00,
2013-08-28 04:53:00,72.9,71.3,29.84,North,0,0.0,0.0,95,0.00,,,0.57,WUHU21623XXSP,2013-08-28 08:53:00,
2013-08-28 04:58:00,72.7,71.2,29.84,North,0,0.0,0.0,95,0.00,,,0.57,WUHU21623XXSP,2013-08-28 08:58:00,
2013-08-28 05:03:00,72.7,71.2,29.84,North,0,0.0,0.0,95,0.00,,,0.57,WUHU21623XXSP,2013-08-28 09:03:00,
2013-08-28 05:08:00,72.7,71.2,29.84,North,0,0.0,0.0,95,0.00,,,0.57,WUHU21623XXSP,2013-08-28 09:08:00,
2013-08-28 05:13:00,72.7,71.2,29.84,North,0,0.0,0.0,95,0.00,,,0.57,WUHU21623XXSP,2013-08-28 09:13:00,
2013-08-28 05:18:00,72.7,71.2,29.84,North,0,0.0,0.0,95,0.00,,,0.57,WUHU21623XXSP,2013-08-28 09:18:00,
2013-08-28 05:23:00,72.7,71.2,29.84,North,0,0.0,0.0,95,0.00,,,0.57,WUHU21623XXSP,2013-08-28 09:23:00,
2013-08-28 05:28:00,72.7,71.2,29.84,North,0,0.0,0.0,95,0.00,,,0.57,WUHU21623XXSP,2013-08-28 09:28:00,
2013-08-28 05:33:00,72.7,71.2,29.84,North,0,0.0,0.0,95,0.00,,,0.57,WUHU21623XXSP,2013-08-28 09:33:00,
2013-08-28 05:38:00,72.7,71.2,29.84,North,0,0.0,0.0,95,0.00,,,0.57,WUHU21623XXSP,2013-08-28 09:38:00,
2013-08-28 05:43:00,72.5,71.0,29.84,North,0,0.0,0.0,95,0.00,,,0.57,WUHU21623XXSP,2013-08-28 09:43:00,
2013-08-28 05:48:00,72.5,71.0,29.84,North,0,0.0,0.0,95,0.00,,,0.57,WUHU21623XXSP,2013-08-28 09:48:00,
2013-08-28 05:53:00,72.5,71.0,29.84,North,0,0.0,0.0,95,0.00,,,0.57,WUHU21623XXSP,2013-08-28 09:53:00,
2013-08-28 05:58:00,72.5,71.0,29.84,North,0,0.0,0.0,95,0.00,,,0.57,WUHU21623XXSP,2013-08-28 09:58:00,
2013-08-28 06:03:00,72.3,70.8,29.85,North,0,0.0,0.0,95,0.00,,,0.57,WUHU21623XXSP,2013-08-28 10:03:00,
2013-08-28 06:08:00,72.3,70.8,29.85,North,0,0.0,0.0,95,0.00,,,0.57,WUHU21623XXSP,2013-08-28 10:08:00,
2013-08-28 06:13:00,72.3,70.8,29.85,North,0,0.0,0.0,95,0.00,,,0.57,WUHU21623XXSP,2013-08-28 10:13:00,
2013-08-28 06:18:00,72.3,70.8,29.85,North,0,0.0,0.0,95,0.00,,,0.57,WUHU21623XXSP,2013-08-28 10:18:00,
2013-08-28 06:23:00,72.1,70.6,29.85,North,0,0.0,0.0,95,0.00,,,0.57,WUHU21623XXSP,2013-08-28 10:23:00,
2013-08-28 06:28:00,72.1,70.6,29.85,North,0,0.0,0.0,95,0.00,,,0.57,WUHU21623XXSP,2013-08-28 10:28:00,
2013-08-28 06:33:00,72.1,70.6,29.85,North,0,0.0,0.0,95,0.00,,,0.57,WUHU21623XXSP,2013-08-28 10:33:00,
2013-08-28 06:38:00,72.1,70.6,29.85,North,0,0.0,0.0,95,0.00,,,0.57,WUHU21623XXSP,2013-08-28 10:38:00,
2013-08-28 06:43:00,72.0,70.4,29.86,North,0,0.0,0.0,95,0.00,,,0.57,WUHU21623XXSP,2013-08-28 10:43:00,
2013-08-28 06:48:00,72.0,70.4,29.86,North,0,0.0,0.0,95,0.00,,,0.57,WUHU21623XXSP,2013-08-28 10:48:00,
2013-08-28 06:53:00,72.0,70.4,29.85,North,0,0.0,0.0,95,0.00,,,0.57,WUHU21623XXSP,2013-08-28 10:53:00,
2013-08-28 06:58:00,72.0,70.4,29.86,North,0,0.0,0.0,95,0.00,,,0.57,WUHU21623XXSP,2013-08-28 10:58:00,
2013-08-28 07:03:00,72.0,70.4,29.86,North,0,0.0,0.0,95,0.00,,,0.57,WUHU21623XXSP,2013-08-28 11:03:00,
2013-08-28 07:08:00,71.8,70.3,29.87,North,0,0.0,0.0,95,0.00,,,0.57,WUHU21623XXSP,2013-08-28 11:08:00,
2013-08-28 07:13:00,71.8,70.3,29.87,North,0,0.0,0.0,95,0.00,,,0.57,WUHU21623XXSP,2013-08-28 11:13:00,
2013-08-28 07:18:00,71.8,70.3,29.87,North,0,0.0,0.0,95,0.00,,,0.57,WUHU21623XXSP,2013-08-28 11:18:00,
2013-08-28 07:23:00,71.8,70.3,29.87,North,0,0.0,0.0,95,0.00,,,0.57,WUHU21623XXSP,2013-08-28 11:23:00,
2013-08-28 07:28:00,71.8,70.3,29.87,North,0,0.0,0.0,95,0.00,,,0.57,WUHU21623XXSP,2013-08-28 11:28:00,
2013-08-28 07:33:00,71.8,70.3,29.87,North,0,0.0,0.0,95,0.00,,,0.57,WUHU21623XXSP,2013-08-28 11:33:00,
2013-08-28 07:38:00,71.8,70.3,29.87,North,0,0.0,0.0,95,0.00,,,0.57,WUHU21623XXSP,2013-08-28 11:38:00,
2013-08-28 07:43:00,71.8,70.3,29.87,North,0,0.0,0.0,95,0.00,,,0.57,WUHU21623XXSP,2013-08-28 11:43:00,
2013-08-28 07:48:00,71.8,70.3,29.88,North,0,0.0,0.0,95,0.00,,,0.57,WUHU21623XXSP,2013-08-28 11:48:00,
2013-08-28 07:53:00,71.8,70.3,29.88,North,0,0.0,0.0,95,0.00,,,0.57,WUHU21623XXSP,2013-08-28 11:53:00,
2013-08-28 07:58:00,71.8,70.3,29.88,North,0,0.0,0.0,95,0.00,,,0.57,WUHU21623XXSP,2013-08-28 11:58:00,
2013-08-28 08:03:00,71.8,70.3,29.88,North,0,0.0,0.0,95,0.00,,,0.57,WUHU21623XXSP,2013-08-28 12:03:00,
2013-08-28 08:08:00,71.8,70.3,29.88,North,0,0.0,0.0,96,0.00,,,0.57,WUHU21623XXSP,2013-08-28 12:08:00,
2013-08-28 08:13:00,71.8,70.6,29.88,North,0,0.0,0.0,96,0.00,,,0.57,WUHU21623XXSP,2013-08-28 12:13:00,
2013-08-28 08:18:00,72.0,70.7,29.88,North,0,0.0,0.0,96,0.00,,,0.57,WUHU21623XXSP,2013-08-28 12:18:00,
2013-08-28 08:23:00,71.8,70.6,29.88,North,0,0.0,0.0,96,0.00,,,0.57,WUHU21623XXSP,2013-08-28 12:23:00,
2013-08-28 08:28:00,71.8,70.6,29.88,North,0,0.0,0.0,96,0.00,,,0.57,WUHU21623XXSP,2013-08-28 12:28:00,
2013-08-28 08:33:00,71.8,70.6,29.89,North,0,0.0,0.0,96,0.00,,,0.57,WUHU21623XXSP,2013-08-28 12:33:00,
2013-08-28 08:38:00,71.8,70.6,29.89,North,0,0.0,0.0,96,0.00,,,0.57,WUHU21623XXSP,2013-08-28 12:38:00,
2013-08-28 08:43:00,71.8,70.6,29.88,North,0,0.0,0.0,96,0.00,,,0.57,WUHU21623XXSP,2013-08-28 12:43:00,
2013-08-28 08:48:00,71.8,70.6,29.89,North,0,0.0,0.0,96,0.00,,,0.57,WUHU21623XXSP,2013-08-28 12:48:00,
2013-08-28 08:53:00,71.8,70.6,29.89,North,0,0.0,0.0,96,0.00,,,0.57,WUHU21623XXSP,2013-08-28 12:53:00,
2013-08-28 08:58:00,71.8,70.6,29.89,North,0,0.0,0.0,96,0.00,,,0.57,WUHU21623XXSP,2013-08-28 12:58:00,
2013-08-28 09:03:00,71.8,70.6,29.89,North,0,0.0,0.0,96,0.00,,,0.57,WUHU21623XXSP,2013-08-28 13:03:00,
2013-08-28 09:08:00,71.8,70.6,29.89,North,0,0.0,0.0,96,0.00,,,0.57,WUHU21623XXSP,2013-08-28 13:08:00,
2013-08-28 09:13:00,71.8,70.6,29.89,North,0,0.0,0.0,96,0.00,,,0.57,WUHU21623XXSP,2013-08-28 13:13:00,
2013-08-28 09:18:00,71.6,70.4,29.90,North,0,0.0,0.0,96,0.00,,,0.57,WUHU21623XXSP,2013-08-28 13:18:00,
2013-08-28 09:23:00,71.8,70.6,29.89,North,0,0.0,0.0,96,0.00,,,0.57,WUHU21623XXSP,2013-08-28 13:23:00,
2013-08-28 09:28:00,71.8,70.6,29.90,North,0,0.0,0.0,96,0.00,,,0.57,WUHU21623XXSP,2013-08-28 13:28:00,
2013-08-28 09:33:00,71.8,70.6,29.90,North,0,0.7,0.7,96,0.00,,,0.57,WUHU21623XXSP,2013-08-28 13:33:00,
2013-08-28 09:38:00,71.8,70.6,29.90,North,0,0.0,0.0,96,0.00,,,0.57,WUHU21623XXSP,2013-08-28 13:38:00,
2013-08-28 09:43:00,72.0,70.7,29.90,North,0,0.0,0.0,96,0.00,,,0.57,WUHU21623XXSP,2013-08-28 13:43:00,
2013-08-28 09:48:00,72.1,70.9,29.90,North,0,0.0,0.0,96,0.00,,,0.57,WUHU21623XXSP,2013-08-28 13:48:00,
2013-08-28 09:53:00,72.1,70.9,29.90,North,0,0.0,0.0,96,0.00,,,0.57,WUHU21623XXSP,2013-08-28 13:53:00,
2013-08-28 09:58:00,72.1,70.9,29.90,North,0,0.0,0.0,96,0.00,,,0.57,WUHU21623XXSP,2013-08-28 13:58:00,
2013-08-28 10:03:00,72.1,70.9,29.90,North,0,0.0,0.0,96,0.00,,,0.57,WUHU21623XXSP,2013-08-28 14:03:00,
2013-08-28 10:08:00,72.1,70.9,29.91,North,0,0.0,0.0,96,0.00,,,0.57,WUHU21623XXSP,2013-08-28 14:08:00,
2013-08-28 10:13:00,72.1,70.9,29.91,North,0,0.0,0.0,96,0.00,,,0.57,WUHU21623XXSP,2013-08-28 14:13:00,
2013-08-28 10:18:00,72.3,71.1,29.91,North,0,0.0,0.0,96,0.00,,,0.57,WUHU21623XXSP,2013-08-28 14:18:00,
2013-08-28 10:23:00,72.3,71.1,29.90,North,0,0.0,0.0,96,0.00,,,0.57,WUHU21623XXSP,2013-08-28 14:23:00,
2013-08-28 10:28:00,72.3,71.1,29.91,North,0,0.0,0.0,96,0.00,,,0.57,WUHU21623XXSP,2013-08-28 14:28:00,
2013-08-28 10:33:00,72.3,71.1,29.91,North,0,0.0,0.0,96,0.00,,,0.57,WUHU21623XXSP,2013-08-28 14:33:00,
2013-08-28 10:38:00,72.5,71.3,29.91,North,0,0.0,0.0,96,0.00,,,0.57,WUHU21623XXSP,2013-08-28 14:38:00,
2013-08-28 10:43:00,72.5,71.3,29.91,North,0,0.0,0.0,96,0.00,,,0.57,WUHU21623XXSP,2013-08-28 14:43:00,
2013-08-28 10:48:00,72.5,71.3,29.91,North,0,0.0,0.0,96,0.00,,,0.57,WUHU21623XXSP,2013-08-28 14:48:00,
2013-08-28 10:53:00,72.7,71.5,29.92,North,0,0.0,0.0,96,0.00,,,0.57,WUHU21623XXSP,2013-08-28 14:53:00,
2013-08-28 10:58:00,72.7,71.5,29.92,North,0,0.0,0.0,96,0.00,,,0.57,WUHU21623XXSP,2013-08-28 14:58:00,
2013-08-28 11:03:00,72.7,71.5,29.92,North,0,0.0,0.0,96,0.00,,,0.57,WUHU21623XXSP,2013-08-28 15:03:00,
2013-08-28 11:08:00,72.7,71.5,29.92,North,0,0.0,0.0,96,0.00,,,0.57,WUHU21623XXSP,2013-08-28 15:08:00,
2013-08-28 11:13:00,72.9,71.6,29.92,North,0,0.0,0.0,96,0.00,,,0.57,WUHU21623XXSP,2013-08-28 15:13:00,
2013-08-28 11:18:00,72.7,71.5,29.92,North,0,0.0,0.0,96,0.00,,,0.57,WUHU21623XXSP,2013-08-28 15:18:00,
2013-08-28 11:23:00,73.0,71.8,29.92,North,0,0.0,0.0,96,0.00,,,0.57,WUHU21623XXSP,2013-08-28 15:23:00,
2013-08-28 11:28:00,73.0,71.8,29.92,North,0,0.0,0.0,96,0.00,,,0.57,WUHU21623XXSP,2013-08-28 15:28:00,
2013-08-28 11:33:00,73.4,72.2,29.93,North,0,0.0,0.0,96,0.00,,,0.57,WUHU21623XXSP,2013-08-28 15:33:00,
2013-08-28 11:38:00,73.6,72.4,29.93,North,0,0.0,0.0,96,0.00,,,0.57,WUHU21623XXSP,2013-08-28 15:38:00,
2013-08-28 11:43:00,73.9,72.7,29.93,North,0,0.0,0.0,96,0.00,,,0.57,WUHU21623XXSP,2013-08-28 15:43:00,
2013-08-28 11:48:00,73.9,72.7,29.93,South,180,1.3,1.3,96,0.00,,,0.57,WUHU21623XXSP,2013-08-28 15:48:00,
2013-08-28 11:53:00,74.1,72.9,29.93,North,0,0.0,0.0,96,0.00,,,0.57,WUHU21623XXSP,2013-08-28 15:53:00,
2013-08-28 11:58:00,74.1,72.9,29.93,North,0,0.0,0.0,96,0.00,,,0.57,WUHU21623XXSP,2013-08-28 15:58:00,
2013-08-28 12:03:00,74.1,72.9,29.93,North,0,0.0,0.0,96,0.00,,,0.57,WUHU21623XXSP,2013-08-28 16:03:00,
2013-08-28 12:08:00,74.1,72.9,29.93,North,0,0.0,0.0,96,0.00,,,0.57,WUHU21623XXSP,2013-08-28 16:08:00,
2013-08-28 12:13:00,74.3,73.1,29.93,North,0,0.0,0.0,96,0.00,,,0.57,WUHU21623XXSP,2013-08-28 16:13:00,
2013-08-28 12:18:00,74.1,72.9,29.93,North,0,0.0,0.0,96,0.00,,,0.57,WUHU21623XXSP,2013-08-28 16:18:00,
2013-08-28 12:23:00,74.1,72.9,29.93,North,0,0.0,0.0,96,0.00,,,0.57,WUHU21623XXSP,2013-08-28 16:23:00,
2013-08-28 12:28:00,74.1,72.6,29.93,North,0,0.0,0.0,95,0.00,,,0.57,WUHU21623XXSP,2013-08-28 16:28:00,
2013-08-28 12:33:00,74.3,72.8,29.93,North,0,0.0,0.0,95,0.00,,,0.57,WUHU21623XXSP,2013-08-28 16:33:00,
2013-08-28 12:38:00,74.5,73.0,29.94,North,0,0.0,0.0,95,0.00,,,0.57,WUHU21623XXSP,2013-08-28 16:38:00,
2013-08-28 12:43:00,74.5,73.0,29.94,North,0,0.0,0.0,95,0.00,,,0.57,WUHU21623XXSP,2013-08-28 16:43:00,
2013-08-28 12:48:00,74.8,73.3,29.94,North,0,0.0,0.0,95,0.00,,,0.57,WUHU21623XXSP,2013-08-28 16:48:00,
2013-08-28 12:53:00,74.8,73.3,29.94,North,0,0.0,0.0,95,0.00,,,0.57,WUHU21623XXSP,2013-08-28 16:53:00,
2013-08-28 12:58:00,75.0,73.5,29.94,North,0,0.0,0.0,95,0.00,,,0.57,WUHU21623XXSP,2013-08-28 16:58:00,
2013-08-28 13:03:00,75.0,73.5,29.94,North,0,0.0,0.0,95,0.00,,,0.57,WUHU21623XXSP,2013-08-28 17:03:00,
2013-08-28 13:08:00,75.4,73.5,29.94,North,0,0.0,0.0,94,0.00,,,0.57,WUHU21623XXSP,2013-08-28 17:08:00,
2013-08-28 13:13:00,75.4,73.5,29.94,North,0,0.0,0.0,94,0.00,,,0.57,WUHU21623XXSP,2013-08-28 17:13:00,
2013-08-28 13:18:00,75.4,73.5,29.94,North,0,0.0,0.0,94,0.00,,,0.57,WUHU21623XXSP,2013-08-28 17:18:00,
2013-08-28 13:23:00,75.7,73.6,29.95,North,0,0.0,0.0,93,0.00,,,0.57,WUHU21623XXSP,2013-08-28 17:23:00,
2013-08-28 13:28:00,75.9,73.8,29.95,North,0,0.0,0.0,93,0.00,,,0.57,WUHU21623XXSP,2013-08-28 17:28:00,
2013-08-28 13:33:00,76.1,74.0,29.95,NNW,337,1.3,1.3,93,0.00,,,0.57,WUHU21623XXSP,2013-08-28 17:33:00,
2013-08-28 13:38:00,76.1,74.0,29.95,North,0,0.0,0.0,93,0.00,,,0.57,WUHU21623XXSP,2013-08-28 17:38:00,
2013-08-28 13:43:00,75.9,73.8,29.95,North,0,0.0,0.0,93,0.00,,,0.57,WUHU21623XXSP,2013-08-28 17:43:00,
2013-08-28 13:48:00,75.9,73.8,29.96,North,0,0.0,0.0,93,0.00,,,0.57,WUHU21623XXSP,2013-08-28 17:48:00,
2013-08-28 13:53:00,75.9,73.8,29.96,North,0,0.0,0.0,93,0.00,,,0.57,WUHU21623XXSP,2013-08-28 17:53:00,
2013-08-28 13:58:00,75.9,73.8,29.95,North,0,0.0,0.0,93,0.00,,,0.57,WUHU21623XXSP,2013-08-28 17:58:00,
2013-08-28 14:03:00,76.1,74.0,29.96,North,0,4.0,4.0,93,0.00,,,0.57,WUHU21623XXSP,2013-08-28 18:03:00,
2013-08-28 14:08:00,76.1,73.7,29.96,North,0,0.0,0.0,92,0.00,,,0.57,WUHU21623XXSP,2013-08-28 18:08:00,
2013-08-28 14:13:00,76.1,73.7,29.96,North,0,0.0,0.0,92,0.00,,,0.57,WUHU21623XXSP,2013-08-28 18:13:00,
2013-08-28 14:18:00,76.3,73.8,29.96,North,0,0.0,0.0,92,0.00,,,0.57,WUHU21623XXSP,2013-08-28 18:18:00,
2013-08-28 14:23:00,76.3,73.8,29.96,North,0,0.0,0.0,92,0.00,,,0.57,WUHU21623XXSP,2013-08-28 18:23:00,
2013-08-28 14:28:00,76.5,73.7,29.96,North,0,0.0,0.0,91,0.00,,,0.57,WUHU21623XXSP,2013-08-28 18:28:00,
2013-08-28 14:33:00,76.5,73.7,29.96,North,0,0.0,0.0,91,0.00,,,0.57,WUHU21623XXSP,2013-08-28 18:33:00,
2013-08-28 14:38:00,76.6,73.9,29.96,North,0,0.0,0.0,91,0.00,,,0.57,WUHU21623XXSP,2013-08-28 18:38:00,
2013-08-28 14:43:00,76.6,73.9,29.96,North,0,0.0,0.0,91,0.00,,,0.57,WUHU21623XXSP,2013-08-28 18:43:00,
2013-08-28 14:48:00,76.8,74.1,29.96,North,0,0.0,0.0,91,0.00,,,0.57,WUHU21623XXSP,2013-08-28 18:48:00,
2013-08-28 14:53:00,76.8,73.8,29.96,North,0,0.0,0.0,90,0.00,,,0.57,WUHU21623XXSP,2013-08-28 18:53:00,
2013-08-28 14:58:00,76.8,73.8,29.96,North,0,0.0,0.0,90,0.00,,,0.57,WUHU21623XXSP,2013-08-28 18:58:00,
2013-08-28 15:03:00,76.6,73.6,29.96,North,0,0.0,0.0,90,0.00,,,0.57,WUHU21623XXSP,2013-08-28 19:03:00,
2013-08-28 15:08:00,76.6,73.6,29.96,North,0,0.0,0.0,90,0.00,,,0.57,WUHU21623XXSP,2013-08-28 19:08:00,
2013-08-28 15:13:00,76.6,73.6,29.96,North,0,0.0,0.0,90,0.00,,,0.57,WUHU21623XXSP,2013-08-28 19:13:00,
2013-08-28 15:18:00,76.8,73.8,29.96,North,0,1.8,1.8,90,0.00,,,0.57,WUHU21623XXSP,2013-08-28 19:18:00,
2013-08-28 15:23:00,76.8,73.8,29.97,North,0,0.0,0.0,90,0.00,,,0.57,WUHU21623XXSP,2013-08-28 19:23:00,
2013-08-28 15:28:00,76.8,73.8,29.97,North,0,0.0,0.0,90,0.00,,,0.57,WUHU21623XXSP,2013-08-28 19:28:00,
2013-08-28 15:33:00,77.2,74.1,29.97,North,0,0.0,0.0,90,0.00,,,0.57,WUHU21623XXSP,2013-08-28 19:33:00,
2013-08-28 15:38:00,77.2,74.1,29.96,North,0,0.0,0.0,90,0.00,,,0.57,WUHU21623XXSP,2013-08-28 19:38:00,
2013-08-28 15:43:00,77.2,74.1,29.96,NNW,337,1.1,1.1,90,0.00,,,0.57,WUHU21623XXSP,2013-08-28 19:43:00,
2013-08-28 15:48:00,77.2,73.8,29.96,North,0,0.0,0.0,89,0.00,,,0.57,WUHU21623XXSP,2013-08-28 19:48:00,
2013-08-28 15:53:00,77.2,73.8,29.96,North,0,0.0,0.0,89,0.00,,,0.57,WUHU21623XXSP,2013-08-28 19:53:00,
2013-08-28 15:58:00,77.4,73.9,29.96,North,0,0.0,0.0,89,0.00,,,0.57,WUHU21623XXSP,2013-08-28 19:58:00,
2013-08-28 16:03:00,77.4,73.9,29.96,North,0,0.0,0.0,89,0.00,,,0.57,WUHU21623XXSP,2013-08-28 20:03:00,
2013-08-28 16:08:00,77.5,73.8,29.96,North,0,0.0,0.0,88,0.00,,,0.57,WUHU21623XXSP,2013-08-28 20:08:00,
2013-08-28 16:13:00,77.5,73.8,29.96,North,0,0.0,0.0,88,0.00,,,0.57,WUHU21623XXSP,2013-08-28 20:13:00,
2013-08-28 16:18:00,77.5,73.8,29.96,North,0,0.0,0.0,88,0.00,,,0.57,WUHU21623XXSP,2013-08-28 20:18:00,
2013-08-28 16:23:00,77.5,73.8,29.97,North,0,0.0,0.0,88,0.00,,,0.57,WUHU21623XXSP,2013-08-28 20:23:00,
2013-08-28 16:28:00,77.5,73.8,29.97,North,0,0.0,0.0,88,0.00,,,0.57,WUHU21623XXSP,2013-08-28 20:28:00,
2013-08-28 16:33:00,77.7,73.9,29.97,North,0,0.0,0.0,88,0.00,,,0.57,WUHU21623XXSP,2013-08-28 20:33:00,
2013-08-28 16:38:00,77.7,73.9,29.97,North,0,0.0,0.0,88,0.00,,,0.57,WUHU21623XXSP,2013-08-28 20:38:00,
2013-08-28 16:43:00,77.9,74.1,29.96,North,0,0.0,0.0,88,0.00,,,0.57,WUHU21623XXSP,2013-08-28 20:43:00,
2013-08-28 16:48:00,77.9,74.1,29.97,North,0,0.0,0.0,88,0.00,,,0.57,WUHU21623XXSP,2013-08-28 20:48:00,
2013-08-28 16:53:00,77.9,74.1,29.97,North,0,0.0,0.0,88,0.00,,,0.57,WUHU21623XXSP,2013-08-28 20:53:00,
2013-08-28 16:58:00,77.9,74.3,29.97,North,0,0.0,0.0,88,0.00,,,0.57,WUHU21623XXSP,2013-08-28 20:58:00,
2013-08-28 17:03:00,77.9,74.3,29.97,North,0,0.0,0.0,88,0.00,,,0.57,WUHU21623XXSP,2013-08-28 21:03:00,
2013-08-28 17:08:00,77.9,74.1,29.97,North,0,0.0,0.0,88,0.00,,,0.57,WUHU21623XXSP,2013-08-28 21:08:00,
2013-08-28 17:13:00,77.9,73.8,29.97,North,0,0.0,0.0,87,0.00,,,0.57,WUHU21623XXSP,2013-08-28 21:13:00,
2013-08-28 17:18:00,77.9,73.8,29.97,North,0,0.0,0.0,87,0.00,,,0.57,WUHU21623XXSP,2013-08-28 21:18:00,
2013-08-28 17:23:00,77.7,73.6,29.97,North,0,0.0,0.0,87,0.00,,,0.57,WUHU21623XXSP,2013-08-28 21:23:00,
2013-08-28 17:28:00,77.9,73.8,29.97,North,0,0.0,0.0,87,0.00,,,0.57,WUHU21623XXSP,2013-08-28 21:28:00,
2013-08-28 17:33:00,77.9,73.8,29.97,North,0,0.0,0.0,87,0.00,,,0.57,WUHU21623XXSP,2013-08-28 21:33:00,
2013-08-28 17:38:00,77.9,73.8,29.97,North,0,0.0,0.0,87,0.00,,,0.57,WUHU21623XXSP,2013-08-28 21:38:00,
2013-08-28 17:43:00,77.9,73.8,29.97,North,0,0.0,0.0,87,0.00,,,0.57,WUHU21623XXSP,2013-08-28 21:43:00,
2013-08-28 17:48:00,77.9,73.4,29.97,North,0,0.0,0.0,86,0.00,,,0.57,WUHU21623XXSP,2013-08-28 21:48:00,
2013-08-28 17:53:00,77.9,73.4,29.96,North,0,3.1,3.1,86,0.00,,,0.57,WUHU21623XXSP,2013-08-28 21:53:00,
2013-08-28 17:58:00,78.1,73.6,29.97,North,0,0.0,0.0,86,0.00,,,0.57,WUHU21623XXSP,2013-08-28 21:58:00,
2013-08-28 18:03:00,78.1,73.6,29.97,North,0,0.0,0.0,86,0.00,,,0.57,WUHU21623XXSP,2013-08-28 22:03:00,
2013-08-28 18:08:00,78.1,73.6,29.97,North,0,0.0,0.0,86,0.00,,,0.57,WUHU21623XXSP,2013-08-28 22:08:00,
2013-08-28 18:13:00,78.4,73.9,29.98,North,0,0.0,0.0,86,0.00,,,0.57,WUHU21623XXSP,2013-08-28 22:13:00,
2013-08-28 18:18:00,78.4,73.6,29.98,North,0,0.0,0.0,85,0.00,,,0.57,WUHU21623XXSP,2013-08-28 22:18:00,
2013-08-28 18:23:00,78.4,73.6,29.98,NNW,337,4.0,4.0,85,0.00,,,0.57,WUHU21623XXSP,2013-08-28 22:23:00,
2013-08-28 18:28:00,78.4,73.6,29.98,North,0,0.0,0.0,85,0.00,,,0.57,WUHU21623XXSP,2013-08-28 22:28:00,
2013-08-28 18:33:00,78.4,73.6,29.98,NNE,22,1.1,1.1,85,0.00,,,0.57,WUHU21623XXSP,2013-08-28 22:33:00,
2013-08-28 18:38:00,78.1,73.0,29.98,North,0,0.0,0.0,84,0.00,,,0.57,WUHU21623XXSP,2013-08-28 22:38:00,
2013-08-28 18:43:00,78.1,72.9,29.98,North,0,0.0,0.0,84,0.00,,,0.57,WUHU21623XXSP,2013-08-28 22:43:00,
2013-08-28 18:48:00,78.1,72.9,29.98,North,0,0.0,0.0,84,0.00,,,0.57,WUHU21623XXSP,2013-08-28 22:48:00,
2013-08-28 18:53:00,78.1,73.2,29.98,North,0,0.0,0.0,85,0.00,,,0.57,WUHU21623XXSP,2013-08-28 22:53:00,
2013-08-28 18:58:00,77.9,73.2,29.98,North,0,4.0,4.0,85,0.00,,,0.57,WUHU21623XXSP,2013-08-28 22:58:00,
2013-08-28 19:03:00,77.9,73.0,29.98,North,0,0.0,0.0,85,0.00,,,0.57,WUHU21623XXSP,2013-08-28 23:03:00,
2013-08-28 19:08:00,77.7,72.9,29.98,North,0,0.0,0.0,85,0.00,,,0.57,WUHU21623XXSP,2013-08-28 23:08:00,
2013-08-28 19:13:00,77.7,72.5,29.98,North,0,0.0,0.0,84,0.00,,,0.57,WUHU21623XXSP,2013-08-28 23:13:00,
2013-08-28 19:18:00,77.5,72.3,29.98,North,0,0.0,0.0,84,0.00,,,0.57,WUHU21623XXSP,2013-08-28 23:18:00,
2013-08-28 19:23:00,77.4,72.1,29.99,NNW,337,2.7,2.7,84,0.00,,,0.57,WUHU21623XXSP,2013-08-28 23:23:00,
2013-08-28 19:28:00,77.2,72.3,29.99,SSW,202,2.0,2.0,85,0.00,,,0.57,WUHU21623XXSP,2013-08-28 23:28:00,
2013-08-28 19:33:00,77.2,72.0,29.99,North,0,0.0,0.0,84,0.00,,,0.57,WUHU21623XXSP,2013-08-28 23:33:00,
2013-08-28 19:38:00,76.8,72.0,29.99,North,0,0.0,0.0,84,0.00,,,0.57,WUHU21623XXSP,2013-08-28 23:38:00,
2013-08-28 19:43:00,76.8,71.6,29.99,North,0,0.0,0.0,84,0.00,,,0.57,WUHU21623XXSP,2013-08-28 23:43:00,
2013-08-28 19:48:00,76.6,71.4,29.99,North,0,0.0,0.0,84,0.00,,,0.57,WUHU21623XXSP,2013-08-28 23:48:00,
2013-08-28 19:53:00,76.5,71.3,29.99,North,0,0.0,0.0,84,0.00,,,0.57,WUHU21623XXSP,2013-08-28 23:53:00,
2013-08-28 19:58:00,76.1,70.9,29.99,North,0,0.0,0.0,84,0.00,,,0.57,WUHU21623XXSP,2013-08-28 23:58:00,
2013-08-28 20:03:00,75.7,71.1,29.99,North,0,0.0,0.0,85,0.00,,,0.57,WUHU21623XXSP,2013-08-29 00:03:00,
2013-08-28 20:08:00,75.6,70.9,29.99,North,0,0.0,0.0,85,0.00,,,0.57,WUHU21623XXSP,2013-08-29 00:08:00,
2013-08-28 20:13:00,75.0,70.3,29.99,North,0,0.0,0.0,85,0.00,,,0.57,WUHU21623XXSP,2013-08-29 00:13:00,
2013-08-28 20:18:00,74.8,70.1,29.99,North,0,0.0,0.0,85,0.00,,,0.57,WUHU21623XXSP,2013-08-29 00:18:00,
2013-08-28 20:23:00,74.5,69.7,29.99,North,0,0.0,0.0,85,0.00,,,0.57,WUHU21623XXSP,2013-08-29 00:23:00,
2013-08-28 20:28:00,74.1,69.3,30.00,North,0,0.0,0.0,85,0.00,,,0.57,WUHU21623XXSP,2013-08-29 00:28:00,
2013-08-28 20:33:00,73.9,69.5,30.00,North,0,0.0,0.0,86,0.00,,,0.57,WUHU21623XXSP,2013-08-29 00:33:00,
2013-08-28 20:38:00,73.6,69.3,30.00,North,0,0.0,0.0,86,0.00,,,0.57,WUHU21623XXSP,2013-08-29 00:38:00,
2013-08-28 20:43:00,73.2,68.8,30.01,North,0,0.0,0.0,86,0.00,,,0.57,WUHU21623XXSP,2013-08-29 00:43:00,
2013-08-28 20:48:00,73.0,68.6,30.00,North,0,0.0,0.0,86,0.00,,,0.57,WUHU21623XXSP,2013-08-29 00:48:00,
2013-08-28 20:53:00,72.9,68.4,30.00,North,0,0.0,0.0,86,0.00,,,0.57,WUHU21623XXSP,2013-08-29 00:53:00,
2013-08-28 20:58:00,72.5,68.3,30.01,North,0,0.0,0.0,87,0.00,,,0.57,WUHU21623XXSP,2013-08-29 00:58:00,
2013-08-28 21:03:00,72.3,68.2,30.01,North,0,0.0,0.0,87,0.00,,,0.57,WUHU21623XXSP,2013-08-29 01:03:00,
2013-08-28 21:08:00,72.1,68.1,30.01,North,0,0.0,0.0,87,0.00,,,0.57,WUHU21623XXSP,2013-08-29 01:08:00,
2013-08-28 21:13:00,71.8,67.7,30.02,North,0,0.0,0.0,87,0.00,,,0.57,WUHU21623XXSP,2013-08-29 01:13:00,
2013-08-28 21:18:00,71.6,67.5,30.02,North,0,0.0,0.0,87,0.00,,,0.57,WUHU21623XXSP,2013-08-29 01:18:00,
2013-08-28 21:23:00,71.4,67.3,30.02,North,0,0.0,0.0,87,0.00,,,0.57,WUHU21623XXSP,2013-08-29 01:23:00,
2013-08-28 21:28:00,71.4,67.3,30.02,North,0,0.0,0.0,87,0.00,,,0.57,WUHU21623XXSP,2013-08-29 01:28:00,
2013-08-28 21:33:00,71.2,67.2,30.02,North,0,0.0,0.0,87,0.00,,,0.57,WUHU21623XXSP,2013-08-29 01:33:00,
2013-08-28 21:38:00,71.2,67.2,30.02,North,0,0.0,0.0,87,0.00,,,0.57,WUHU21623XXSP,2013-08-29 01:38:00,
2013-08-28 21:43:00,70.9,66.8,30.02,North,0,0.0,0.0,87,0.00,,,0.57,WUHU21623XXSP,2013-08-29 01:43:00,
2013-08-28 21:48:00,70.9,66.8,30.03,North,0,0.0,0.0,87,0.00,,,0.57,WUHU21623XXSP,2013-08-29 01:48:00,
2013-08-28 21:53:00,70.5,67.0,30.03,North,0,0.0,0.0,88,0.00,,,0.57,WUHU21623XXSP,2013-08-29 01:53:00,
2013-08-28 21:58:00,70.5,66.8,30.03,North,0,0.0,0.0,88,0.00,,,0.57,WUHU21623XXSP,2013-08-29 01:58:00,
2013-08-28 22:03:00,70.3,66.6,30.03,North,0,0.0,0.0,88,0.00,,,0.57,WUHU21623XXSP,2013-08-29 02:03:00,
2013-08-28 22:08:00,70.2,66.4,30.03,North,0,0.0,0.0,88,0.00,,,0.57,WUHU21623XXSP,2013-08-29 02:08:00,
2013-08-28 22:13:00,70.0,66.2,30.04,North,0,0.0,0.0,88,0.00,,,0.57,WUHU21623XXSP,2013-08-29 02:13:00,
2013-08-28 22:18:00,69.6,65.9,30.04,North,0,0.0,0.0,88,0.00,,,0.57,WUHU21623XXSP,2013-08-29 02:18:00,
2013-08-28 22:23:00,69.6,66.2,30.04,North,0,0.0,0.0,89,0.00,,,0.57,WUHU21623XXSP,2013-08-29 02:23:00,
2013-08-28 22:28:00,69.4,66.0,30.04,North,0,0.0,0.0,89,0.00,,,0.57,WUHU21623XXSP,2013-08-29 02:28:00,
2013-08-28 22:33:00,69.4,66.0,30.04,North,0,0.0,0.0,89,0.00,,,0.57,WUHU21623XXSP,2013-08-29 02:33:00,
2013-08-28 22:38:00,69.1,65.7,30.04,North,0,0.0,0.0,89,0.00,,,0.57,WUHU21623XXSP,2013-08-29 02:38:00,
2013-08-28 22:43:00,69.1,65.7,30.04,North,0,0.0,0.0,89,0.00,,,0.57,WUHU21623XXSP,2013-08-29 02:43:00,
2013-08-28 22:48:00,68.9,65.5,30.04,North,0,0.0,0.0,89,0.00,,,0.57,WUHU21623XXSP,2013-08-29 02:48:00,
2013-08-28 22:53:00,68.7,65.3,30.04,North,0,0.0,0.0,89,0.00,,,0.57,WUHU21623XXSP,2013-08-29 02:53:00,
2013-08-28 22:58:00,68.7,65.3,30.04,North,0,0.0,0.0,89,0.00,,,0.57,WUHU21623XXSP,2013-08-29 02:58:00,
2013-08-28 23:03:00,68.5,65.3,30.04,North,0,0.0,0.0,89,0.00,,,0.57,WUHU21623XXSP,2013-08-29 03:03:00,
2013-08-28 23:08:00,68.5,65.1,30.04,North,0,0.0,0.0,89,0.00,,,0.57,WUHU21623XXSP,2013-08-29 03:08:00,
2013-08-28 23:13:00,68.4,65.0,30.04,North,0,0.0,0.0,89,0.00,,,0.57,WUHU21623XXSP,2013-08-29 03:13:00,
2013-08-28 23:18:00,68.4,65.3,30.04,North,0,0.0,0.0,90,0.00,,,0.57,WUHU21623XXSP,2013-08-29 03:18:00,
2013-08-28 23:23:00,68.2,65.1,30.04,North,0,0.0,0.0,90,0.00,,,0.57,WUHU21623XXSP,2013-08-29 03:23:00,
2013-08-28 23:28:00,68.2,65.1,30.04,North,0,0.0,0.0,90,0.00,,,0.57,WUHU21623XXSP,2013-08-29 03:28:00,
2013-08-28 23:33:00,67.8,64.8,30.04,North,0,0.0,0.0,90,0.00,,,0.57,WUHU21623XXSP,2013-08-29 03:33:00,
2013-08-28 23:38:00,67.8,64.8,30.04,North,0,0.0,0.0,90,0.00,,,0.57,WUHU21623XXSP,2013-08-29 03:38:00,
2013-08-28 23:43:00,67.8,64.8,30.04,North,0,0.0,0.0,90,0.00,,,0.57,WUHU21623XXSP,2013-08-29 03:43:00,
2013-08-28 23:48:00,67.6,64.6,30.05,North,0,0.0,0.0,90,0.00,,,0.57,WUHU21623XXSP,2013-08-29 03:48:00,
2013-08-28 23:53:00,67.6,64.6,30.05,North,0,0.0,0.0,90,0.00,,,0.57,WUHU21623XXSP,2013-08-29 03:53:00,
2013-08-28 23:58:00,67.3,64.2,30.05,North,0,0.0,0.0,90,0.00,,,0.57,WUHU21623XXSP,2013-08-29 03:58:00,